This demonstration page uses our WeatherBlox Daily Observations layout. Learn more.

39.92423, -83.80882

Hourly Observations for January 19, 2020

Temp ( °F °C ) Dew Point ( °F °C ) Humidity (%) Winds ( mph kmh ) Pressure ( in mb ) Visibility ( mi km ) Precip ( " mm )
12:56 am 00:56 Windy with Snow Likely 24 -4.4 20 -6.7 84 84 W 21 33 29.99 1016 9 14.48406 0.001 0.001
1:56 am 01:56 Windy with Snow Likely 22 -5.6 17 -8.3 82 82 W 23 37 30.01 1016 9 14.48406 0.001 0.001
2:56 am 02:56 Windy with Snow Likely 22 -5.6 18 -7.8 85 85 W 28 44 30.01 1016 9 14.48406 0.001 0.001
3:56 am 03:56 Windy with Snow Likely 21 -6.1 14 -10 74 74 W 21 33 30.05 1018 9 14.48406 0.001 0.001
4:56 am 04:56 Cloudy with Light Snow 19 -7.2 14 -10 81 81 W 15 24 30.08 1019 9 14.48406 0.001 0.001
5:56 am 05:56 Cloudy with Light Snow 18 -7.8 13 -10.6 81 81 WNW 16 26 30.1 1019 9 14.48406 0.001 0.001
6:56 am 06:56 Cloudy with Light Snow 17 -8.3 12 -11.1 80 80 W 18 30 30.12 1020 9 14.48406 0.001 0.001
7:56 am 07:56 Windy with Snow Likely 16 -8.9 11 -11.7 80 80 W 21 33 30.15 1021 9 14.48406 0.001 0.001
8:56 am 08:56 Cloudy with Light Snow 14 -10 9 -12.8 80 80 WNW 18 30 30.18 1022 7 11.26538 0.001 0.001
9:56 am 09:56 Cloudy with Light Snow 14 -10 11 -11.7 88 88 WNW 16 26 30.2 1023 2.5 4.02335 0.001 0.001
10:22 am 10:22 Windy with Snow Likely 14 -10 10 -12 85 85 WNW 20 31 30.26 1025 1.75 2.816345 0.001 0.001
10:31 am 10:31 Windy with Snow Likely 12 -11 10 -12 92 92 WNW 21 33 30.27 1025 3 4.82802 0.001 0.001
10:43 am 10:43 Cloudy with Light Snow 12 -11 9 -13 85 85 WNW 17 28 30.28 1026 9 14.48406 0.001 0.001
10:56 am 10:56 Cloudy 13 -10.6 7 -13.9 77 77 WNW 18 30 30.24 1024 9 14.48406 0.001 0.001
11:56 am 11:56 Cloudy with Light Snow 14 -10 9 -12.8 80 80 W 15 24 30.25 1024 6 9.65604 0.001 0.001
12:56 pm 12:56 Cloudy with Light Snow 13 -10.6 8 -13.3 81 81 W 18 30 30.26 1025 8 12.87472 0.001 0.001
1:56 pm 13:56 Windy with Snow Likely 13 -10.6 8 -13.3 81 81 W 20 31 30.27 1025 8 12.87472 0.001 0.001
2:56 pm 14:56 Cloudy with Light Snow 13 -10.6 8 -13.3 81 81 WNW 16 26 30.28 1026 8 12.87472 0.001 0.001
3:56 pm 15:56 Cloudy with Light Snow 13 -10.6 8 -13.3 81 81 W 15 24 30.32 1027 10 16.0934 0.001 0.001
4:56 pm 16:56 Cloudy with Light Snow 13 -10.6 8 -13.3 81 81 WNW 17 28 30.34 1028 9 14.48406 0.001 0.001
5:44 pm 17:44 Cloudy with Light Snow 12 -11 9 -13 85 85 W 15 24 30.4 1030 9 14.48406 0.001 0.001
5:56 pm 17:56 Cloudy with Light Snow 13 -10.6 9 -12.8 84 84 W 15 24 30.37 1028 7 11.26538 0.001 0.001
6:36 pm 18:36 Cloudy with Light Snow 14 -10 10 -12 85 85 W 14 22 30.43 1030 9 14.48406 0.001 0.001
6:56 pm 18:56 Cloudy with Light Snow 13 -10.6 9 -12.8 84 84 W 15 24 30.4 1029 9 14.48406 0.001 0.001
7:52 pm 19:52 Cloudy with Light Snow 12 -11 9 -13 85 85 WNW 17 28 30.47 1032 9 14.48406 0.001 0.001
7:56 pm 19:56 Cloudy with Light Snow 13 -10.6 9 -12.8 84 84 WNW 17 28 30.42 1030 9 14.48406 0.001 0.001
8:56 pm 20:56 Cloudy with Light Snow 14 -10 10 -12.2 84 84 WNW 13 20 30.44 1031 8 12.87472 0.001 0.001
9:56 pm 21:56 Cloudy with Light Snow 14 -10 11 -11.7 88 88 W 9 15 30.45 1031 8 12.87472 0.001 0.001
10:56 pm 22:56 Cloudy with Light Snow 14 -10 11 -11.7 88 88 WNW 12 19 30.45 1031 9 14.48406 0.001 0.001
11:07 pm 23:07 Cloudy with Light Snow 14 -10 10 -12 85 85 WNW 10 17 30.48 1032 9 14.48406 0.001 0.001
11:56 pm 23:56 Cloudy with Light Snow 14 -10 11 -11.7 88 88 WNW 8 13 30.46 1032 9 14.48406 0.001 0.001

Powered by AerisWeather